Location: Azul
(36.7830°S, 59.8500°W)
Time: 09:48:45
(UTC-03:00)

DIWATA 2B (PO-101) - Visible Passes

Search period start: 22 October 2021 00:00
Search period end: 01 November 2021 00:00
Orbit: 585 x 599 km, 97.9° (Epoch: 22 October)

Date Brightness Start Highest point End Pass type
(mag) Time Alt. Az. Time Alt. Az. Time Alt. Az.
22 Oct ? 03:47:32 10° S 03:50:11 32° SSW 03:50:11 32° SSW visible
23 Oct ? 02:21:47 10° SE 02:22:29 13° ESE 02:22:29 13° ESE visible
23 Oct ? 03:56:23 10° S 03:59:05 29° SW 03:59:05 29° SW visible
24 Oct ? 02:30:05 10° SE 02:31:23 16° ESE 02:31:23 16° ESE visible
24 Oct ? 04:05:16 10° SSW 04:07:59 25° SW 04:07:59 25° SW visible
25 Oct ? 02:38:30 10° SE 02:40:17 20° ESE 02:40:17 20° ESE visible
25 Oct ? 04:14:13 10° SSW 04:16:53 21° WSW 04:16:53 21° WSW visible
26 Oct ? 02:46:59 10° SSE 02:49:11 25° SE 02:49:11 25° SE visible
26 Oct ? 04:23:16 10° SSW 04:25:47 17° WSW 04:25:47 17° WSW visible
27 Oct ? 02:55:32 10° SSE 02:58:05 31° SE 02:58:05 31° SE visible
27 Oct ? 04:32:26 10° SSW 04:34:40 14° WSW 04:34:40 14° WSW visible
28 Oct ? 03:04:08 10° SSE 03:06:59 38° SE 03:06:59 38° SE visible
28 Oct ? 04:41:56 10° SW 04:43:17 11° WSW 04:43:34 11° WSW visible
29 Oct ? 03:12:46 10° SSE 03:15:52 46° SSE 03:15:52 46° SSE visible
30 Oct ? 03:21:27 10° SSE 03:24:46 54° SSE 03:24:46 54° SSE visible
31 Oct ? 03:30:10 10° S 03:33:39 56° SSW 03:33:39 56° SSW visible
